Time,TemperatureF,DewpointF,PressureIn,WindDirection,WindDirectionDegrees,WindSpeedMPH,WindSpeedGustMPH,Humidity,HourlyPrecipIn,Conditions,Clouds,dailyrainin,SoftwareType,DateUTC
2013-05-15 00:01:00,58.2,38.6,30.07,ENE,68,0.0,1.0,48,0.00,,,0.00,WeatherCatV1.14B232,2013-05-15 04:01:00,
2013-05-15 00:06:00,58.3,38.7,30.07,SE,126,0.0,0.0,48,0.00,,,0.00,WeatherCatV1.14B232,2013-05-15 04:06:00,
2013-05-15 00:11:00,58.3,39.2,30.07,ESE,103,0.0,0.0,49,0.00,,,0.00,WeatherCatV1.14B232,2013-05-15 04:11:00,
2013-05-15 00:16:00,58.3,39.2,30.07,ESE,103,0.0,0.0,49,0.00,,,0.00,WeatherCatV1.14B232,2013-05-15 04:16:00,
2013-05-15 00:21:00,58.3,39.7,30.07,NNE,16,0.0,1.0,50,0.00,,,0.00,WeatherCatV1.14B232,2013-05-15 04:21:00,
2013-05-15 00:26:00,58.2,39.6,30.07,SE,144,1.0,3.0,50,0.00,,,0.00,WeatherCatV1.14B232,2013-05-15 04:26:00,
2013-05-15 00:31:00,58.2,39.6,30.06,NNE,23,0.0,1.0,50,0.00,,,0.00,WeatherCatV1.14B232,2013-05-15 04:31:00,
2013-05-15 00:36:00,58.1,40.1,30.06,East,101,0.0,1.0,51,0.00,,,0.00,WeatherCatV1.14B232,2013-05-15 04:36:00,
2013-05-15 00:41:00,58.1,40.1,30.06,ESE,113,1.0,1.0,51,0.00,,,0.00,WeatherCatV1.14B232,2013-05-15 04:41:00,
2013-05-15 00:46:00,58.1,40.1,30.06,ESE,113,0.0,1.0,51,0.00,,,0.00,WeatherCatV1.14B232,2013-05-15 04:46:00,
2013-05-15 00:51:00,58.1,40.6,30.06,ESE,105,0.0,0.0,52,0.00,,,0.00,WeatherCatV1.14B232,2013-05-15 04:51:00,
2013-05-15 00:55:00,58.0,40.5,30.06,West,259,0.0,1.0,52,0.00,,,0.00,WeatherCatV1.14B232,2013-05-15 04:55:00,
2013-05-15 01:00:00,58.0,41.0,30.05,East,91,0.0,1.0,53,0.00,,,0.00,WeatherCatV1.14B232,2013-05-15 05:00:00,
2013-05-15 01:05:00,58.0,41.0,30.05,SW,230,0.0,1.0,53,0.00,,,0.00,WeatherCatV1.14B232,2013-05-15 05:05:00,
2013-05-15 01:10:00,58.0,41.4,30.05,ENE,60,0.0,1.0,54,0.00,,,0.00,WeatherCatV1.14B232,2013-05-15 05:10:00,
2013-05-15 01:15:00,58.0,41.4,30.05,East,93,1.0,3.0,54,0.00,,,0.00,WeatherCatV1.14B232,2013-05-15 05:15:00,
2013-05-15 01:20:00,58.0,41.4,30.05,East,84,0.0,0.0,54,0.00,,,0.00,WeatherCatV1.14B232,2013-05-15 05:20:00,
2013-05-15 01:25:00,58.0,41.9,30.04,East,96,1.0,1.0,55,0.00,,,0.00,WeatherCatV1.14B232,2013-05-15 05:25:00,
2013-05-15 01:30:00,57.9,42.3,30.04,ESE,120,0.0,1.0,56,0.00,,,0.00,WeatherCatV1.14B232,2013-05-15 05:30:00,
2013-05-15 01:35:00,57.8,42.7,30.04,ESE,114,0.0,0.0,57,0.00,,,0.00,WeatherCatV1.14B232,2013-05-15 05:35:00,
2013-05-15 01:40:00,57.5,42.8,30.03,ESE,105,0.0,0.0,58,0.00,,,0.00,WeatherCatV1.14B232,2013-05-15 05:40:00,
2013-05-15 01:45:00,57.2,43.0,30.03,ESE,103,0.0,0.0,59,0.00,,,0.00,WeatherCatV1.14B232,2013-05-15 05:45:00,
2013-05-15 01:50:00,57.1,42.9,30.03,ESE,115,0.0,0.0,59,0.00,,,0.00,WeatherCatV1.14B232,2013-05-15 05:50:00,
2013-05-15 01:55:00,57.0,43.3,30.03,SSW,192,0.0,0.0,60,0.00,,,0.00,WeatherCatV1.14B232,2013-05-15 05:55:00,
2013-05-15 02:00:00,56.9,43.2,30.03,ESE,114,0.0,1.0,60,0.00,,,0.00,WeatherCatV1.14B232,2013-05-15 06:00:00,
2013-05-15 02:05:00,56.8,43.5,30.03,SE,135,0.0,2.0,61,0.00,,,0.00,WeatherCatV1.14B232,2013-05-15 06:05:00,
2013-05-15 02:10:00,56.9,43.6,30.03,SE,135,0.0,0.0,61,0.00,,,0.00,WeatherCatV1.14B232,2013-05-15 06:10:00,
2013-05-15 02:15:00,56.8,43.5,30.02,East,101,0.0,1.0,61,0.00,,,0.00,WeatherCatV1.14B232,2013-05-15 06:15:00,
2013-05-15 02:20:00,56.8,43.9,30.02,East,99,0.0,1.0,62,0.00,,,0.00,WeatherCatV1.14B232,2013-05-15 06:20:00,
2013-05-15 02:25:00,56.8,43.9,30.02,East,98,0.0,0.0,62,0.00,,,0.00,WeatherCatV1.14B232,2013-05-15 06:25:00,
2013-05-15 02:30:00,56.8,44.3,30.02,East,100,0.0,0.0,63,0.00,,,0.00,WeatherCatV1.14B232,2013-05-15 06:30:00,
2013-05-15 02:35:00,56.7,44.2,30.02,East,99,0.0,0.0,63,0.00,,,0.00,WeatherCatV1.14B232,2013-05-15 06:35:00,
2013-05-15 02:40:00,56.7,44.7,30.01,East,99,0.0,1.0,64,0.00,,,0.00,WeatherCatV1.14B232,2013-05-15 06:40:00,
2013-05-15 02:45:00,56.7,44.7,30.01,ESE,112,0.0,1.0,64,0.00,,,0.00,WeatherCatV1.14B232,2013-05-15 06:45:00,
2013-05-15 02:50:00,56.8,44.8,30.01,ESE,112,0.0,0.0,64,0.00,,,0.00,WeatherCatV1.14B232,2013-05-15 06:50:00,
2013-05-15 02:55:00,56.8,44.8,30.01,East,84,0.0,0.0,64,0.00,,,0.00,WeatherCatV1.14B232,2013-05-15 06:55:00,
2013-05-15 03:00:00,56.8,44.8,30.01,ESE,106,0.0,0.0,64,0.00,,,0.00,WeatherCatV1.14B232,2013-05-15 07:00:00,
2013-05-15 03:05:00,56.9,44.8,30.01,ESE,107,0.0,1.0,64,0.00,,,0.00,WeatherCatV1.14B232,2013-05-15 07:05:00,
2013-05-15 03:10:00,56.8,44.8,30.01,ESE,107,0.0,0.0,64,0.00,,,0.00,WeatherCatV1.14B232,2013-05-15 07:10:00,
2013-05-15 03:15:00,56.8,44.8,30.01,ESE,107,0.0,0.0,64,0.00,,,0.00,WeatherCatV1.14B232,2013-05-15 07:15:00,
2013-05-15 03:20:00,56.8,45.2,30.01,ESE,117,0.0,0.0,65,0.00,,,0.00,WeatherCatV1.14B232,2013-05-15 07:20:00,
2013-05-15 03:25:00,56.8,45.2,30.01,ESE,119,0.0,0.0,65,0.00,,,0.00,WeatherCatV1.14B232,2013-05-15 07:25:00,
2013-05-15 03:30:00,56.8,45.2,30.00,ESE,118,0.0,0.0,65,0.00,,,0.00,WeatherCatV1.14B232,2013-05-15 07:30:00,
2013-05-15 03:35:00,56.8,45.6,30.00,ESE,119,0.0,0.0,66,0.00,,,0.00,WeatherCatV1.14B232,2013-05-15 07:35:00,
2013-05-15 03:40:00,56.8,45.6,30.00,ESE,119,0.0,0.0,66,0.00,,,0.00,WeatherCatV1.14B232,2013-05-15 07:40:00,
2013-05-15 03:48:00,56.8,45.6,30.00,ESE,119,0.0,0.0,66,0.00,,,0.00,WeatherCatV1.14B232,2013-05-15 07:48:00,
2013-05-15 03:53:00,56.8,45.6,30.00,ESE,119,0.0,0.0,66,0.00,,,0.00,WeatherCatV1.14B232,2013-05-15 07:53:00,
2013-05-15 03:58:00,56.8,46.0,30.00,ESE,120,0.0,0.0,67,0.00,,,0.00,WeatherCatV1.14B232,2013-05-15 07:58:00,
2013-05-15 04:03:00,56.8,46.0,30.00,ESE,120,0.0,0.0,67,0.00,,,0.00,WeatherCatV1.14B232,2013-05-15 08:03:00,
2013-05-15 04:08:00,56.7,45.9,30.00,ESE,120,0.0,0.0,67,0.00,,,0.00,WeatherCatV1.14B232,2013-05-15 08:08:00,
2013-05-15 04:13:00,56.8,46.0,30.00,ESE,120,0.0,1.0,67,0.00,,,0.00,WeatherCatV1.14B232,2013-05-15 08:13:00,
2013-05-15 04:18:00,56.8,46.0,30.00,ESE,120,0.0,0.0,67,0.00,,,0.00,WeatherCatV1.14B232,2013-05-15 08:18:00,
2013-05-15 04:23:00,56.8,46.0,30.00,ESE,117,0.0,0.0,67,0.00,,,0.00,WeatherCatV1.14B232,2013-05-15 08:23:00,
2013-05-15 04:28:00,56.7,46.3,29.99,ESE,116,0.0,1.0,68,0.00,,,0.00,WeatherCatV1.14B232,2013-05-15 08:28:00,
2013-05-15 04:33:00,56.7,46.3,29.99,ESE,103,0.0,0.0,68,0.00,,,0.00,WeatherCatV1.14B232,2013-05-15 08:33:00,
2013-05-15 04:38:00,56.6,46.2,29.99,ESE,103,0.0,0.0,68,0.00,,,0.00,WeatherCatV1.14B232,2013-05-15 08:38:00,
2013-05-15 04:43:00,56.5,46.1,29.99,ESE,103,0.0,0.0,68,0.00,,,0.00,WeatherCatV1.14B232,2013-05-15 08:43:00,
2013-05-15 04:48:00,56.5,46.5,29.99,ESE,103,0.0,0.0,69,0.00,,,0.00,WeatherCatV1.14B232,2013-05-15 08:48:00,
2013-05-15 04:53:00,56.4,46.4,29.98,ESE,103,0.0,0.0,69,0.00,,,0.00,WeatherCatV1.14B232,2013-05-15 08:53:00,
2013-05-15 04:58:00,56.5,46.5,29.98,ESE,103,0.0,1.0,69,0.00,,,0.00,WeatherCatV1.14B232,2013-05-15 08:58:00,
2013-05-15 05:03:00,56.5,46.5,29.98,NW,319,0.0,0.0,69,0.00,,,0.00,WeatherCatV1.14B232,2013-05-15 09:03:00,
2013-05-15 05:08:00,56.6,46.5,29.98,East,90,0.0,1.0,69,0.00,,,0.00,WeatherCatV1.14B232,2013-05-15 09:08:00,
2013-05-15 05:13:00,56.8,46.7,29.98,East,91,0.0,0.0,69,0.00,,,0.00,WeatherCatV1.14B232,2013-05-15 09:13:00,
2013-05-15 05:18:00,56.9,46.8,29.98,East,91,0.0,0.0,69,0.00,,,0.00,WeatherCatV1.14B232,2013-05-15 09:18:00,
2013-05-15 05:23:00,56.9,46.8,29.98,East,91,0.0,0.0,69,0.00,,,0.00,WeatherCatV1.14B232,2013-05-15 09:23:00,
2013-05-15 05:26:00,56.9,46.8,29.98,East,91,0.0,0.0,69,0.00,,,0.00,WeatherCatV1.14B232,2013-05-15 09:26:00,
2013-05-15 05:31:00,56.9,46.8,29.98,NNW,337,0.0,0.0,69,0.00,,,0.00,WeatherCatV1.14B232,2013-05-15 09:31:00,
2013-05-15 05:36:00,57.0,46.5,29.98,North,349,0.0,1.0,68,0.00,,,0.00,WeatherCatV1.14B232,2013-05-15 09:36:00,
2013-05-15 05:41:00,57.1,46.6,29.97,East,99,0.0,1.0,68,0.00,,,0.00,WeatherCatV1.14B232,2013-05-15 09:41:00,
2013-05-15 05:46:00,57.1,46.6,29.97,East,99,0.0,1.0,68,0.00,,,0.00,WeatherCatV1.14B232,2013-05-15 09:46:00,
2013-05-15 05:51:00,57.1,46.6,29.97,WSW,243,0.0,1.0,68,0.00,,,0.00,WeatherCatV1.14B232,2013-05-15 09:51:00,
2013-05-15 05:56:00,57.1,46.6,29.97,WSW,243,0.0,0.0,68,0.00,,,0.00,WeatherCatV1.14B232,2013-05-15 09:56:00,
2013-05-15 06:01:00,57.1,46.2,29.97,WSW,244,0.0,0.0,67,0.00,,,0.00,WeatherCatV1.14B232,2013-05-15 10:01:00,
2013-05-15 06:06:00,57.2,46.3,29.97,WSW,244,0.0,0.0,67,0.00,,,0.00,WeatherCatV1.14B232,2013-05-15 10:06:00,
2013-05-15 06:11:00,57.2,46.3,29.97,WSW,243,0.0,0.0,67,0.00,,,0.00,WeatherCatV1.14B232,2013-05-15 10:11:00,
2013-05-15 06:16:00,57.2,46.3,29.97,West,259,0.0,0.0,67,0.00,,,0.00,WeatherCatV1.14B232,2013-05-15 10:16:00,
2013-05-15 06:21:00,57.2,46.3,29.97,West,259,0.0,0.0,67,0.00,,,0.00,WeatherCatV1.14B232,2013-05-15 10:21:00,
2013-05-15 06:26:00,57.1,46.6,29.97,West,259,0.0,0.0,68,0.00,,,0.00,WeatherCatV1.14B232,2013-05-15 10:26:00,
2013-05-15 06:31:00,56.9,46.1,29.97,West,259,0.0,0.0,67,0.00,,,0.00,WeatherCatV1.14B232,2013-05-15 10:31:00,
2013-05-15 06:36:00,56.8,45.6,29.97,WNW,292,0.0,1.0,66,0.00,,,0.00,WeatherCatV1.14B232,2013-05-15 10:36:00,
2013-05-15 06:41:00,56.9,46.4,29.97,WNW,292,0.0,0.0,68,0.00,,,0.00,WeatherCatV1.14B232,2013-05-15 10:41:00,
2013-05-15 06:46:00,56.8,47.5,29.98,WNW,292,0.0,1.0,71,0.00,,,0.00,WeatherCatV1.14B232,2013-05-15 10:46:00,
2013-05-15 06:51:00,56.6,47.3,29.98,WNW,292,0.0,0.0,71,0.00,,,0.00,WeatherCatV1.14B232,2013-05-15 10:51:00,
2013-05-15 06:56:00,56.4,47.5,29.98,WNW,292,0.0,0.0,72,0.00,,,0.00,WeatherCatV1.14B232,2013-05-15 10:56:00,
2013-05-15 07:01:00,56.2,46.9,29.98,WNW,292,0.0,0.0,71,0.00,,,0.00,WeatherCatV1.14B232,2013-05-15 11:01:00,
2013-05-15 07:06:00,56.4,47.9,29.98,WNW,289,0.0,0.0,73,0.00,,,0.00,WeatherCatV1.14B232,2013-05-15 11:06:00,
2013-05-15 07:11:00,56.8,46.7,29.97,WSW,250,0.0,0.0,69,0.00,,,0.00,WeatherCatV1.14B232,2013-05-15 11:11:00,
2013-05-15 07:16:00,57.3,47.2,29.97,WSW,248,0.0,0.0,69,0.00,,,0.00,WeatherCatV1.14B232,2013-05-15 11:16:00,
2013-05-15 07:21:00,58.0,46.3,29.97,WSW,240,0.0,1.0,65,0.00,,,0.00,WeatherCatV1.14B232,2013-05-15 11:21:00,
2013-05-15 07:26:00,58.7,45.3,29.97,SSW,212,0.0,2.0,61,0.00,,,0.00,WeatherCatV1.14B232,2013-05-15 11:26:00,
2013-05-15 07:31:00,59.3,45.4,29.96,SW,219,0.0,1.0,60,0.00,,,0.00,WeatherCatV1.14B232,2013-05-15 11:31:00,
2013-05-15 07:36:00,59.8,45.4,29.96,SW,233,2.0,2.0,59,0.00,,,0.00,WeatherCatV1.14B232,2013-05-15 11:36:00,
2013-05-15 07:41:00,60.1,45.3,29.95,WSW,249,1.0,1.0,58,0.00,,,0.00,WeatherCatV1.14B232,2013-05-15 11:41:00,
2013-05-15 07:46:00,60.4,45.1,29.95,SW,225,0.0,3.0,57,0.00,,,0.00,WeatherCatV1.14B232,2013-05-15 11:46:00,
2013-05-15 07:51:00,60.7,45.8,29.96,SW,228,1.0,4.0,58,0.00,,,0.00,WeatherCatV1.14B232,2013-05-15 11:51:00,
2013-05-15 07:56:00,60.7,44.9,29.95,WSW,247,1.0,4.0,56,0.00,,,0.00,WeatherCatV1.14B232,2013-05-15 11:56:00,
2013-05-15 08:01:00,60.5,45.2,29.95,WSW,243,1.0,3.0,57,0.00,,,0.00,WeatherCatV1.14B232,2013-05-15 12:01:00,
2013-05-15 08:06:00,60.3,45.5,29.95,SW,222,0.0,1.0,58,0.00,,,0.00,WeatherCatV1.14B232,2013-05-15 12:06:00,
2013-05-15 08:11:00,60.2,45.8,29.95,SW,236,1.0,1.0,59,0.00,,,0.00,WeatherCatV1.14B232,2013-05-15 12:11:00,
2013-05-15 08:16:00,60.3,46.4,29.96,SSW,212,0.0,1.0,60,0.00,,,0.00,WeatherCatV1.14B232,2013-05-15 12:16:00,
2013-05-15 08:21:00,60.3,45.9,29.96,West,259,1.0,2.0,59,0.00,,,0.00,WeatherCatV1.14B232,2013-05-15 12:21:00,
2013-05-15 08:26:00,60.3,45.9,29.96,SW,226,0.0,1.0,59,0.00,,,0.00,WeatherCatV1.14B232,2013-05-15 12:26:00,
2013-05-15 08:31:00,60.4,46.0,29.96,SW,223,0.0,1.0,59,0.00,,,0.00,WeatherCatV1.14B232,2013-05-15 12:31:00,
2013-05-15 08:36:00,60.4,46.4,29.97,WNW,283,0.0,1.0,60,0.00,,,0.00,WeatherCatV1.14B232,2013-05-15 12:36:00,
2013-05-15 08:41:00,60.3,46.4,29.96,WSW,258,1.0,1.0,60,0.00,,,0.00,WeatherCatV1.14B232,2013-05-15 12:41:00,
2013-05-15 08:46:00,60.1,46.2,29.95,SSW,192,1.0,2.0,60,0.00,,,0.00,WeatherCatV1.14B232,2013-05-15 12:46:00,
2013-05-15 08:51:00,59.9,45.5,29.95,WSW,241,0.0,2.0,59,0.00,,,0.00,WeatherCatV1.14B232,2013-05-15 12:51:00,
2013-05-15 08:56:00,59.9,46.8,29.96,SSW,211,0.0,2.0,62,0.00,,,0.00,WeatherCatV1.14B232,2013-05-15 12:56:00,
2013-05-15 09:01:00,59.9,47.7,29.96,WSW,237,0.0,1.0,64,0.00,,,0.00,WeatherCatV1.14B232,2013-05-15 13:01:00,
2013-05-15 09:06:00,59.7,47.5,29.96,SSW,208,0.0,1.0,64,0.00,,,0.00,WeatherCatV1.14B232,2013-05-15 13:06:00,
2013-05-15 09:11:00,59.6,47.8,29.96,SW,216,0.0,0.0,65,0.00,,,0.00,WeatherCatV1.14B232,2013-05-15 13:11:00,
2013-05-15 09:16:00,59.8,49.2,29.96,SW,216,0.0,0.0,68,0.00,,,0.00,WeatherCatV1.14B232,2013-05-15 13:16:00,
2013-05-15 09:21:00,60.3,48.1,29.96,SW,228,0.0,0.0,64,0.00,,,0.00,WeatherCatV1.14B232,2013-05-15 13:21:00,
2013-05-15 09:26:00,60.5,48.3,29.96,SW,229,0.0,1.0,64,0.00,,,0.00,WeatherCatV1.14B232,2013-05-15 13:26:00,
2013-05-15 09:31:00,60.8,48.1,29.96,SW,219,0.0,1.0,63,0.00,,,0.00,WeatherCatV1.14B232,2013-05-15 13:31:00,
2013-05-15 09:36:00,61.1,46.7,29.96,SW,226,1.0,2.0,59,0.00,,,0.00,WeatherCatV1.14B232,2013-05-15 13:36:00,
2013-05-15 09:41:00,61.0,47.0,29.96,SW,227,0.0,1.0,60,0.00,,,0.00,WeatherCatV1.14B232,2013-05-15 13:41:00,
2013-05-15 09:46:00,60.9,47.4,29.95,SW,223,2.0,2.0,61,0.00,,,0.00,WeatherCatV1.14B232,2013-05-15 13:46:00,
2013-05-15 09:51:00,61.0,47.5,29.95,SW,219,1.0,3.0,61,0.00,,,0.00,WeatherCatV1.14B232,2013-05-15 13:51:00,
2013-05-15 09:56:00,61.1,48.4,29.96,SW,229,0.0,1.0,63,0.00,,,0.00,WeatherCatV1.14B232,2013-05-15 13:56:00,
2013-05-15 10:01:00,61.0,47.5,29.95,SW,221,0.0,1.0,61,0.00,,,0.00,WeatherCatV1.14B232,2013-05-15 14:01:00,
2013-05-15 10:06:00,60.9,48.2,29.94,SSW,212,1.0,1.0,63,0.00,,,0.00,WeatherCatV1.14B232,2013-05-15 14:06:00,
2013-05-15 10:11:00,60.8,48.1,29.94,WSW,238,0.0,2.0,63,0.00,,,0.00,WeatherCatV1.14B232,2013-05-15 14:11:00,
2013-05-15 10:16:00,60.8,48.1,29.94,SSW,204,0.0,1.0,63,0.00,,,0.00,WeatherCatV1.14B232,2013-05-15 14:16:00,
2013-05-15 10:21:00,60.8,48.1,29.94,WSW,248,0.0,2.0,63,0.00,,,0.00,WeatherCatV1.14B232,2013-05-15 14:21:00,
2013-05-15 10:26:00,60.8,48.1,29.94,SW,233,2.0,2.0,63,0.00,,,0.00,WeatherCatV1.14B232,2013-05-15 14:26:00,
2013-05-15 10:31:00,60.9,47.8,29.93,WSW,239,1.0,4.0,62,0.00,,,0.00,WeatherCatV1.14B232,2013-05-15 14:31:00,
2013-05-15 10:36:00,61.1,48.0,29.93,SSW,209,0.0,2.0,62,0.00,,,0.00,WeatherCatV1.14B232,2013-05-15 14:36:00,
2013-05-15 10:41:00,61.1,48.4,29.92,SE,129,0.0,2.0,63,0.00,,,0.00,WeatherCatV1.14B232,2013-05-15 14:41:00,
2013-05-15 10:46:00,61.1,48.8,29.92,ENE,72,0.0,1.0,64,0.00,,,0.00,WeatherCatV1.14B232,2013-05-15 14:46:00,
2013-05-15 10:51:00,61.0,48.3,29.92,SW,220,0.0,1.0,63,0.00,,,0.00,WeatherCatV1.14B232,2013-05-15 14:51:00,
2013-05-15 10:56:00,61.1,48.8,29.93,WSW,238,0.0,1.0,64,0.00,,,0.00,WeatherCatV1.14B232,2013-05-15 14:56:00,
2013-05-15 11:02:00,61.3,49.8,29.93,WNW,303,0.0,0.0,66,0.00,,,0.00,WeatherCatV1.14B232,2013-05-15 15:02:00,
2013-05-15 11:07:00,61.5,49.2,29.92,SW,231,0.0,1.0,64,0.00,,,0.00,WeatherCatV1.14B232,2013-05-15 15:07:00,
2013-05-15 11:12:00,61.4,48.7,29.92,SW,231,0.0,4.0,63,0.00,,,0.00,WeatherCatV1.14B232,2013-05-15 15:12:00,
2013-05-15 11:17:00,61.8,48.6,29.92,SW,230,0.0,5.0,62,0.00,,,0.00,WeatherCatV1.14B232,2013-05-15 15:17:00,
2013-05-15 11:22:00,62.4,49.2,29.92,WSW,239,0.0,4.0,62,0.00,,,0.00,WeatherCatV1.14B232,2013-05-15 15:22:00,
2013-05-15 11:27:00,62.9,48.8,29.91,SW,236,1.0,3.0,60,0.00,,,0.00,WeatherCatV1.14B232,2013-05-15 15:27:00,
2013-05-15 11:32:00,63.2,48.6,29.92,SW,233,1.0,7.0,59,0.00,,,0.00,WeatherCatV1.14B232,2013-05-15 15:32:00,
2013-05-15 11:37:00,63.5,49.8,29.91,WSW,244,0.0,4.0,61,0.00,,,0.00,WeatherCatV1.14B232,2013-05-15 15:37:00,
2013-05-15 11:42:00,63.2,48.6,29.90,WSW,248,1.0,3.0,59,0.00,,,0.00,WeatherCatV1.14B232,2013-05-15 15:42:00,
2013-05-15 11:47:00,63.0,49.8,29.89,SW,219,0.0,1.0,62,0.00,,,0.00,WeatherCatV1.14B232,2013-05-15 15:47:00,
2013-05-15 11:52:00,64.0,52.0,29.91,SW,224,1.0,2.0,65,0.00,,,0.00,WeatherCatV1.14B232,2013-05-15 15:52:00,
2013-05-15 11:57:00,65.1,51.3,29.91,WSW,240,2.0,2.0,61,0.00,,,0.00,WeatherCatV1.14B232,2013-05-15 15:57:00,
2013-05-15 12:02:00,65.3,51.1,29.90,SW,214,2.0,2.0,60,0.00,,,0.00,WeatherCatV1.14B232,2013-05-15 16:02:00,
2013-05-15 12:07:00,66.0,51.7,29.89,SW,228,0.0,1.0,60,0.00,,,0.00,WeatherCatV1.14B232,2013-05-15 16:07:00,
2013-05-15 12:12:00,67.5,53.1,29.89,SW,236,0.0,1.0,60,0.00,,,0.00,WeatherCatV1.14B232,2013-05-15 16:12:00,
2013-05-15 12:17:00,68.4,53.0,29.89,SW,229,2.0,2.0,58,0.00,,,0.00,WeatherCatV1.14B232,2013-05-15 16:17:00,
2013-05-15 12:22:00,68.8,52.9,29.90,SSW,211,0.0,1.0,57,0.00,,,0.00,WeatherCatV1.14B232,2013-05-15 16:22:00,
2013-05-15 12:27:00,69.1,51.2,29.90,WSW,237,2.0,3.0,53,0.00,,,0.00,WeatherCatV1.14B232,2013-05-15 16:27:00,
2013-05-15 12:32:00,69.0,52.6,29.89,SW,226,0.0,1.0,56,0.00,,,0.00,WeatherCatV1.14B232,2013-05-15 16:32:00,
2013-05-15 12:37:00,69.7,51.8,29.89,SW,234,1.0,3.0,53,0.00,,,0.00,WeatherCatV1.14B232,2013-05-15 16:37:00,
2013-05-15 12:42:00,69.9,52.5,29.89,SW,223,1.0,4.0,54,0.00,,,0.00,WeatherCatV1.14B232,2013-05-15 16:42:00,
2013-05-15 12:47:00,70.6,53.6,29.88,SW,224,1.0,3.0,55,0.00,,,0.00,WeatherCatV1.14B232,2013-05-15 16:47:00,
2013-05-15 12:52:00,71.8,54.2,29.88,SSW,212,0.0,1.0,54,0.00,,,0.00,WeatherCatV1.14B232,2013-05-15 16:52:00,
2013-05-15 12:57:00,72.2,54.1,29.88,SW,227,1.0,2.0,53,0.00,,,0.00,WeatherCatV1.14B232,2013-05-15 16:57:00,
2013-05-15 13:02:00,71.7,53.1,29.88,SW,225,1.0,3.0,52,0.00,,,0.00,WeatherCatV1.14B232,2013-05-15 17:02:00,
2013-05-15 13:07:00,71.8,53.2,29.87,WSW,248,2.0,3.0,52,0.00,,,0.00,WeatherCatV1.14B232,2013-05-15 17:07:00,
2013-05-15 13:12:00,72.2,55.1,29.87,West,277,1.0,2.0,55,0.00,,,0.00,WeatherCatV1.14B232,2013-05-15 17:12:00,
2013-05-15 13:17:00,72.7,54.0,29.86,SSW,209,2.0,3.0,52,0.00,,,0.00,WeatherCatV1.14B232,2013-05-15 17:17:00,
2013-05-15 13:22:00,72.7,55.1,29.86,SW,233,5.0,5.0,54,0.00,,,0.00,WeatherCatV1.14B232,2013-05-15 17:22:00,
2013-05-15 13:27:00,73.1,54.4,29.86,SW,223,2.0,4.0,52,0.00,,,0.00,WeatherCatV1.14B232,2013-05-15 17:27:00,
2013-05-15 13:32:00,73.4,55.2,29.85,WSW,240,1.0,1.0,53,0.00,,,0.00,WeatherCatV1.14B232,2013-05-15 17:32:00,
2013-05-15 13:37:00,73.5,54.2,29.85,ENE,62,1.0,7.0,51,0.00,,,0.00,WeatherCatV1.14B232,2013-05-15 17:37:00,
2013-05-15 13:42:00,74.0,56.3,29.85,WSW,248,0.0,3.0,54,0.00,,,0.00,WeatherCatV1.14B232,2013-05-15 17:42:00,
2013-05-15 13:47:00,74.0,55.2,29.85,South,179,2.0,3.0,52,0.00,,,0.00,WeatherCatV1.14B232,2013-05-15 17:47:00,
2013-05-15 13:52:00,74.0,55.2,29.85,WSW,240,3.0,4.0,52,0.00,,,0.00,WeatherCatV1.14B232,2013-05-15 17:52:00,
2013-05-15 13:57:00,74.2,56.0,29.84,North,8,1.0,1.0,53,0.00,,,0.00,WeatherCatV1.14B232,2013-05-15 17:57:00,
2013-05-15 14:02:00,74.5,56.2,29.85,ESE,102,2.0,6.0,53,0.00,,,0.00,WeatherCatV1.14B232,2013-05-15 18:02:00,
2013-05-15 14:07:00,74.6,55.8,29.85,SW,219,2.0,3.0,52,0.00,,,0.00,WeatherCatV1.14B232,2013-05-15 18:07:00,
2013-05-15 14:12:00,75.5,57.2,29.86,SE,140,0.0,0.0,53,0.00,,,0.00,WeatherCatV1.14B232,2013-05-15 18:12:00,
2013-05-15 14:17:00,76.8,57.8,29.86,SE,136,1.0,1.0,52,0.00,,,0.00,WeatherCatV1.14B232,2013-05-15 18:17:00,
2013-05-15 14:22:00,77.7,57.0,29.86,West,259,0.0,1.0,49,0.00,,,0.00,WeatherCatV1.14B232,2013-05-15 18:22:00,
2013-05-15 14:27:00,78.3,58.7,29.86,SW,231,0.0,0.0,51,0.00,,,0.00,WeatherCatV1.14B232,2013-05-15 18:27:00,
2013-05-15 14:32:00,79.6,58.7,29.86,WNW,297,0.0,1.0,49,0.00,,,0.00,WeatherCatV1.14B232,2013-05-15 18:32:00,
2013-05-15 14:37:00,79.8,57.8,29.85,SE,127,0.0,1.0,47,0.00,,,0.00,WeatherCatV1.14B232,2013-05-15 18:37:00,
2013-05-15 14:42:00,80.2,57.5,29.85,South,174,0.0,2.0,46,0.00,,,0.00,WeatherCatV1.14B232,2013-05-15 18:42:00,
2013-05-15 14:47:00,80.8,59.2,29.84,SSE,162,0.0,1.0,48,0.00,,,0.00,WeatherCatV1.14B232,2013-05-15 18:47:00,
2013-05-15 14:52:00,81.6,58.8,29.83,SW,230,0.0,0.0,46,0.00,,,0.00,WeatherCatV1.14B232,2013-05-15 18:52:00,
2013-05-15 14:57:00,81.6,58.8,29.83,East,81,2.0,3.0,46,0.00,,,0.00,WeatherCatV1.14B232,2013-05-15 18:57:00,
2013-05-15 15:02:00,80.9,58.2,29.83,SW,226,0.0,5.0,46,0.00,,,0.00,WeatherCatV1.14B232,2013-05-15 19:02:00,
2013-05-15 15:07:00,80.6,58.5,29.83,ESE,111,0.0,1.0,47,0.00,,,0.00,WeatherCatV1.14B232,2013-05-15 19:07:00,
2013-05-15 15:12:00,80.8,58.7,29.83,SW,232,0.0,1.0,47,0.00,,,0.00,WeatherCatV1.14B232,2013-05-15 19:12:00,
2013-05-15 15:17:00,80.4,58.3,29.82,ESE,105,1.0,5.0,47,0.00,,,0.00,WeatherCatV1.14B232,2013-05-15 19:17:00,
2013-05-15 15:22:00,80.4,60.0,29.82,East,96,3.0,5.0,50,0.00,,,0.00,WeatherCatV1.14B232,2013-05-15 19:22:00,
2013-05-15 15:27:00,80.3,59.4,29.81,SW,230,0.0,1.0,49,0.00,,,0.00,WeatherCatV1.14B232,2013-05-15 19:27:00,
2013-05-15 15:32:00,80.3,59.4,29.81,West,266,0.0,1.0,49,0.00,,,0.00,WeatherCatV1.14B232,2013-05-15 19:32:00,
2013-05-15 15:37:00,80.5,60.1,29.80,SSW,212,0.0,1.0,50,0.00,,,0.00,WeatherCatV1.14B232,2013-05-15 19:37:00,
2013-05-15 15:42:00,81.0,59.4,29.80,East,81,4.0,5.0,48,0.00,,,0.00,WeatherCatV1.14B232,2013-05-15 19:42:00,
2013-05-15 15:47:00,81.1,60.1,29.79,WSW,239,0.0,1.0,49,0.00,,,0.00,WeatherCatV1.14B232,2013-05-15 19:47:00,
2013-05-15 15:52:00,81.3,59.7,29.79,NW,304,10.0,10.0,48,0.00,,,0.00,WeatherCatV1.14B232,2013-05-15 19:52:00,
2013-05-15 15:57:00,81.4,59.8,29.78,WSW,243,5.0,5.0,48,0.00,,,0.00,WeatherCatV1.14B232,2013-05-15 19:57:00,
2013-05-15 16:02:00,81.5,60.5,29.77,WSW,250,0.0,6.0,49,0.00,,,0.00,WeatherCatV1.14B232,2013-05-15 20:02:00,
2013-05-15 16:07:00,81.6,60.6,29.77,SW,219,1.0,4.0,49,0.00,,,0.00,WeatherCatV1.14B232,2013-05-15 20:07:00,
2013-05-15 16:12:00,81.9,60.8,29.76,WSW,249,3.0,6.0,49,0.00,,,0.00,WeatherCatV1.14B232,2013-05-15 20:12:00,
2013-05-15 16:17:00,82.1,59.8,29.76,SSW,212,0.0,1.0,47,0.00,,,0.00,WeatherCatV1.14B232,2013-05-15 20:17:00,
2013-05-15 16:22:00,82.3,60.0,29.75,East,84,3.0,8.0,47,0.00,,,0.00,WeatherCatV1.14B232,2013-05-15 20:22:00,
2013-05-15 16:27:00,82.5,60.2,29.75,NNW,328,1.0,3.0,47,0.00,,,0.00,WeatherCatV1.14B232,2013-05-15 20:27:00,
2013-05-15 16:32:00,82.7,60.4,29.74,WSW,258,2.0,8.0,47,0.00,,,0.00,WeatherCatV1.14B232,2013-05-15 20:32:00,
2013-05-15 16:37:00,83.0,60.7,29.74,SW,225,3.0,3.0,47,0.00,,,0.00,WeatherCatV1.14B232,2013-05-15 20:37:00,
2013-05-15 16:42:00,83.2,61.4,29.74,North,9,0.0,8.0,48,0.00,,,0.00,WeatherCatV1.14B232,2013-05-15 20:42:00,
2013-05-15 16:47:00,83.4,61.0,29.74,SSW,212,1.0,2.0,47,0.00,,,0.00,WeatherCatV1.14B232,2013-05-15 20:47:00,
2013-05-15 16:52:00,83.7,60.7,29.73,SW,236,1.0,5.0,46,0.00,,,0.00,WeatherCatV1.14B232,2013-05-15 20:52:00,
2013-05-15 16:57:00,84.0,61.6,29.73,South,190,1.0,6.0,47,0.00,,,0.00,WeatherCatV1.14B232,2013-05-15 20:57:00,
2013-05-15 17:02:00,84.3,61.2,29.73,SSW,205,1.0,6.0,46,0.00,,,0.00,WeatherCatV1.14B232,2013-05-15 21:02:00,
2013-05-15 17:07:00,84.1,60.4,29.72,SW,221,1.0,6.0,45,0.00,,,0.00,WeatherCatV1.14B232,2013-05-15 21:07:00,
2013-05-15 17:12:00,84.0,60.3,29.72,SW,235,1.0,9.0,45,0.00,,,0.00,WeatherCatV1.14B232,2013-05-15 21:12:00,
2013-05-15 17:17:00,84.0,60.3,29.72,SW,232,3.0,7.0,45,0.00,,,0.00,WeatherCatV1.14B232,2013-05-15 21:17:00,
2013-05-15 17:22:00,84.0,60.3,29.72,SW,230,3.0,4.0,45,0.00,,,0.00,WeatherCatV1.14B232,2013-05-15 21:22:00,
2013-05-15 17:27:00,84.1,60.4,29.71,SW,231,0.0,6.0,45,0.00,,,0.00,WeatherCatV1.14B232,2013-05-15 21:27:00,
2013-05-15 17:32:00,84.2,61.1,29.71,WSW,245,1.0,1.0,46,0.00,,,0.00,WeatherCatV1.14B232,2013-05-15 21:32:00,
2013-05-15 17:37:00,84.3,60.6,29.71,ENE,60,4.0,6.0,45,0.00,,,0.00,WeatherCatV1.14B232,2013-05-15 21:37:00,
2013-05-15 17:42:00,84.4,60.7,29.71,WSW,245,1.0,2.0,45,0.00,,,0.00,WeatherCatV1.14B232,2013-05-15 21:42:00,
2013-05-15 17:47:00,84.4,60.7,29.70,WSW,248,2.0,5.0,45,0.00,,,0.00,WeatherCatV1.14B232,2013-05-15 21:47:00,
2013-05-15 17:52:00,84.3,61.2,29.70,SW,224,0.0,3.0,46,0.00,,,0.00,WeatherCatV1.14B232,2013-05-15 21:52:00,
2013-05-15 17:57:00,84.1,61.1,29.70,SSW,210,1.0,2.0,46,0.00,,,0.00,WeatherCatV1.14B232,2013-05-15 21:57:00,
2013-05-15 18:02:00,84.0,61.0,29.70,SW,224,1.0,10.0,46,0.00,,,0.00,WeatherCatV1.14B232,2013-05-15 22:02:00,
2013-05-15 18:07:00,84.2,60.5,29.70,SW,226,1.0,6.0,45,0.00,,,0.00,WeatherCatV1.14B232,2013-05-15 22:07:00,
2013-05-15 18:12:00,84.3,60.6,29.70,NW,308,1.0,9.0,45,0.00,,,0.00,WeatherCatV1.14B232,2013-05-15 22:12:00,
2013-05-15 18:17:00,84.4,60.7,29.70,SW,231,5.0,8.0,45,0.00,,,0.00,WeatherCatV1.14B232,2013-05-15 22:17:00,
2013-05-15 18:22:00,84.3,60.6,29.70,SW,227,1.0,5.0,45,0.00,,,0.00,WeatherCatV1.14B232,2013-05-15 22:22:00,
2013-05-15 18:27:00,84.0,60.3,29.70,SW,233,4.0,10.0,45,0.00,,,0.00,WeatherCatV1.14B232,2013-05-15 22:27:00,
2013-05-15 18:32:00,83.8,60.2,29.69,WSW,250,1.0,6.0,45,0.00,,,0.00,WeatherCatV1.14B232,2013-05-15 22:32:00,
2013-05-15 18:37:00,83.6,60.6,29.69,NW,321,1.0,2.0,46,0.00,,,0.00,WeatherCatV1.14B232,2013-05-15 22:37:00,
2013-05-15 18:42:00,83.4,61.0,29.70,SW,219,0.0,2.0,47,0.00,,,0.00,WeatherCatV1.14B232,2013-05-15 22:42:00,
2013-05-15 18:47:00,83.2,60.8,29.70,SW,230,1.0,1.0,47,0.00,,,0.00,WeatherCatV1.14B232,2013-05-15 22:47:00,
2013-05-15 18:52:00,83.2,61.4,29.70,SW,235,0.0,2.0,48,0.00,,,0.00,WeatherCatV1.14B232,2013-05-15 22:52:00,
2013-05-15 18:57:00,83.1,61.3,29.70,WSW,241,0.0,1.0,48,0.00,,,0.00,WeatherCatV1.14B232,2013-05-15 22:57:00,
2013-05-15 19:02:00,82.9,61.7,29.70,WSW,241,0.0,0.0,49,0.00,,,0.00,WeatherCatV1.14B232,2013-05-15 23:02:00,
2013-05-15 19:07:00,82.8,61.7,29.70,NW,308,1.0,1.0,49,0.00,,,0.00,WeatherCatV1.14B232,2013-05-15 23:07:00,
2013-05-15 19:12:00,82.8,61.7,29.70,WSW,245,0.0,1.0,49,0.00,,,0.00,WeatherCatV1.14B232,2013-05-15 23:12:00,
2013-05-15 19:17:00,82.7,61.6,29.70,SSW,210,3.0,4.0,49,0.00,,,0.00,WeatherCatV1.14B232,2013-05-15 23:17:00,
2013-05-15 19:22:00,82.7,61.6,29.71,SW,214,1.0,4.0,49,0.00,,,0.00,WeatherCatV1.14B232,2013-05-15 23:22:00,
2013-05-15 19:27:00,82.5,62.0,29.71,SW,219,0.0,1.0,50,0.00,,,0.00,WeatherCatV1.14B232,2013-05-15 23:27:00,
2013-05-15 19:32:00,82.3,61.8,29.71,SW,234,0.0,0.0,50,0.00,,,0.00,WeatherCatV1.14B232,2013-05-15 23:32:00,
2013-05-15 19:37:00,82.0,62.1,29.72,SW,235,0.0,1.0,51,0.00,,,0.00,WeatherCatV1.14B232,2013-05-15 23:37:00,
2013-05-15 19:42:00,81.8,61.9,29.72,SSW,212,0.0,0.0,51,0.00,,,0.00,WeatherCatV1.14B232,2013-05-15 23:42:00,
2013-05-15 19:47:00,81.7,61.8,29.72,SW,217,2.0,2.0,51,0.00,,,0.00,WeatherCatV1.14B232,2013-05-15 23:47:00,
2013-05-15 19:52:00,81.6,62.2,29.72,WSW,240,0.0,0.0,52,0.00,,,0.00,WeatherCatV1.14B232,2013-05-15 23:52:00,
2013-05-15 19:57:00,81.4,62.1,29.72,SW,216,0.0,1.0,52,0.00,,,0.00,WeatherCatV1.14B232,2013-05-15 23:57:00,
2013-05-15 20:02:00,81.2,62.4,29.72,SW,215,0.0,1.0,53,0.00,,,0.00,WeatherCatV1.14B232,2013-05-16 00:02:00,
2013-05-15 20:08:00,81.0,62.2,29.72,WSW,252,0.0,1.0,53,0.00,,,0.00,WeatherCatV1.14B232,2013-05-16 00:08:00,
2013-05-15 20:13:00,80.7,62.0,29.72,WSW,242,0.0,0.0,53,0.00,,,0.00,WeatherCatV1.14B232,2013-05-16 00:13:00,
2013-05-15 20:18:00,80.4,62.2,29.72,WSW,242,0.0,0.0,54,0.00,,,0.00,WeatherCatV1.14B232,2013-05-16 00:18:00,
2013-05-15 20:23:00,80.1,62.4,29.72,WSW,243,0.0,0.0,55,0.00,,,0.00,WeatherCatV1.14B232,2013-05-16 00:23:00,
2013-05-15 20:28:00,79.9,62.8,29.72,WSW,242,0.0,2.0,56,0.00,,,0.00,WeatherCatV1.14B232,2013-05-16 00:28:00,
2013-05-15 20:33:00,79.8,62.7,29.72,SW,219,0.0,0.0,56,0.00,,,0.00,WeatherCatV1.14B232,2013-05-16 00:33:00,
2013-05-15 20:38:00,79.5,62.9,29.72,SW,221,0.0,0.0,57,0.00,,,0.00,WeatherCatV1.14B232,2013-05-16 00:38:00,
2013-05-15 20:43:00,79.1,62.5,29.72,SW,224,0.0,1.0,57,0.00,,,0.00,WeatherCatV1.14B232,2013-05-16 00:43:00,
2013-05-15 20:48:00,78.9,62.8,29.73,SW,224,0.0,1.0,58,0.00,,,0.00,WeatherCatV1.14B232,2013-05-16 00:48:00,
2013-05-15 20:53:00,78.6,63.0,29.73,SW,224,0.0,0.0,59,0.00,,,0.00,WeatherCatV1.14B232,2013-05-16 00:53:00,
2013-05-15 20:58:00,78.0,63.0,29.73,SW,224,0.0,0.0,60,0.00,,,0.00,WeatherCatV1.14B232,2013-05-16 00:58:00,
2013-05-15 21:03:00,77.4,62.9,29.73,SW,224,0.0,0.0,61,0.00,,,0.00,WeatherCatV1.14B232,2013-05-16 01:03:00,
2013-05-15 21:08:00,76.8,62.8,29.74,SW,224,0.0,0.0,62,0.00,,,0.00,WeatherCatV1.14B232,2013-05-16 01:08:00,
2013-05-15 21:13:00,76.3,63.2,29.74,SW,224,0.0,0.0,64,0.00,,,0.00,WeatherCatV1.14B232,2013-05-16 01:13:00,
2013-05-15 21:18:00,75.8,62.7,29.74,SW,224,0.0,0.0,64,0.00,,,0.00,WeatherCatV1.14B232,2013-05-16 01:18:00,
2013-05-15 21:23:00,75.4,62.8,29.74,SW,224,0.0,0.0,65,0.00,,,0.00,WeatherCatV1.14B232,2013-05-16 01:23:00,
2013-05-15 21:28:00,75.1,62.9,29.74,SW,224,0.0,0.0,66,0.00,,,0.00,WeatherCatV1.14B232,2013-05-16 01:28:00,
2013-05-15 21:33:00,74.8,63.1,29.75,SW,224,0.0,0.0,67,0.00,,,0.00,WeatherCatV1.14B232,2013-05-16 01:33:00,
2013-05-15 21:38:00,74.5,62.8,29.75,SW,224,0.0,0.0,67,0.00,,,0.00,WeatherCatV1.14B232,2013-05-16 01:38:00,
2013-05-15 21:43:00,74.2,62.9,29.75,SW,224,0.0,0.0,68,0.00,,,0.00,WeatherCatV1.14B232,2013-05-16 01:43:00,
2013-05-15 21:48:00,73.9,63.1,29.75,SW,224,0.0,0.0,69,0.00,,,0.00,WeatherCatV1.14B232,2013-05-16 01:48:00,
2013-05-15 21:53:00,73.7,63.3,29.75,SW,224,0.0,0.0,70,0.00,,,0.00,WeatherCatV1.14B232,2013-05-16 01:53:00,
2013-05-15 21:58:00,73.5,63.1,29.75,SW,224,0.0,0.0,70,0.00,,,0.00,WeatherCatV1.14B232,2013-05-16 01:58:00,
2013-05-15 22:03:00,73.2,63.2,29.76,SW,224,0.0,0.0,71,0.00,,,0.00,WeatherCatV1.14B232,2013-05-16 02:03:00,
2013-05-15 22:08:00,73.0,63.4,29.76,SW,224,0.0,0.0,72,0.00,,,0.00,WeatherCatV1.14B232,2013-05-16 02:08:00,
2013-05-15 22:13:00,72.8,63.2,29.76,SW,224,0.0,0.0,72,0.00,,,0.00,WeatherCatV1.14B232,2013-05-16 02:13:00,
2013-05-15 22:18:00,72.7,63.1,29.76,SW,224,0.0,0.0,72,0.00,,,0.00,WeatherCatV1.14B232,2013-05-16 02:18:00,
2013-05-15 22:23:00,72.5,62.9,29.76,SW,224,0.0,0.0,72,0.00,,,0.00,WeatherCatV1.14B232,2013-05-16 02:23:00,
2013-05-15 22:28:00,72.5,62.9,29.76,SW,224,0.0,0.0,72,0.00,,,0.00,WeatherCatV1.14B232,2013-05-16 02:28:00,
2013-05-15 22:33:00,72.4,63.2,29.76,SW,224,0.0,0.0,73,0.00,,,0.00,WeatherCatV1.14B232,2013-05-16 02:33:00,
2013-05-15 22:38:00,72.4,63.2,29.76,SW,224,0.0,0.0,73,0.00,,,0.00,WeatherCatV1.14B232,2013-05-16 02:38:00,
2013-05-15 22:43:00,72.3,63.1,29.76,SW,224,0.0,0.0,73,0.00,,,0.00,WeatherCatV1.14B232,2013-05-16 02:43:00,
2013-05-15 22:48:00,72.2,63.4,29.76,SW,224,0.0,0.0,74,0.00,,,0.00,WeatherCatV1.14B232,2013-05-16 02:48:00,
2013-05-15 22:53:00,72.1,63.3,29.76,SW,224,0.0,0.0,74,0.00,,,0.00,WeatherCatV1.14B232,2013-05-16 02:53:00,
2013-05-15 22:58:00,72.0,63.2,29.76,SW,224,0.0,0.0,74,0.00,,,0.00,WeatherCatV1.14B232,2013-05-16 02:58:00,
2013-05-15 23:03:00,71.9,63.1,29.76,SW,224,0.0,0.0,74,0.00,,,0.00,WeatherCatV1.14B232,2013-05-16 03:03:00,
2013-05-15 23:08:00,71.8,63.4,29.76,SW,224,0.0,0.0,75,0.00,,,0.00,WeatherCatV1.14B232,2013-05-16 03:08:00,
2013-05-15 23:13:00,71.7,63.3,29.76,SW,224,0.0,0.0,75,0.00,,,0.00,WeatherCatV1.14B232,2013-05-16 03:13:00,
2013-05-15 23:18:00,71.6,63.2,29.76,SW,224,0.0,0.0,75,0.00,,,0.00,WeatherCatV1.14B232,2013-05-16 03:18:00,
2013-05-15 23:23:00,71.5,63.5,29.77,SW,224,0.0,0.0,76,0.00,,,0.00,WeatherCatV1.14B232,2013-05-16 03:23:00,
2013-05-15 23:28:00,71.4,63.4,29.77,SW,224,0.0,0.0,76,0.00,,,0.00,WeatherCatV1.14B232,2013-05-16 03:28:00,
2013-05-15 23:33:00,71.3,63.7,29.76,SW,224,0.0,0.0,77,0.00,,,0.00,WeatherCatV1.14B232,2013-05-16 03:33:00,
2013-05-15 23:38:00,71.2,63.6,29.76,SW,224,0.0,0.0,77,0.00,,,0.00,WeatherCatV1.14B232,2013-05-16 03:38:00,
2013-05-15 23:43:00,71.1,63.5,29.76,SW,224,0.0,0.0,77,0.00,,,0.00,WeatherCatV1.14B232,2013-05-16 03:43:00,
2013-05-15 23:48:00,71.1,63.5,29.77,SW,224,0.0,0.0,77,0.00,,,0.00,WeatherCatV1.14B232,2013-05-16 03:48:00,
2013-05-15 23:53:00,71.1,63.1,29.76,SW,224,0.0,0.0,76,0.00,,,0.00,WeatherCatV1.14B232,2013-05-16 03:53:00,
2013-05-15 23:58:00,71.1,63.5,29.77,SW,224,0.0,0.0,77,0.00,,,0.00,WeatherCatV1.14B232,2013-05-16 03:58:00,